Sparrevohn, AK

5:32 PM AKDT on June 24, 2017 (GMT -0800)
Sparrevohn LRRS

Weather History for PASV - September, 2013

Change the Weather History Date:

Sunday, September 22, 2013

  Actual Average Record
Temperature  
Mean Temperature 30 °F -  
Max Temperature 34 °F 43 °F 58 °F (2012)
Min Temperature 25 °F 31 °F 25 °F (2013)
Degree Days  
Heating Degree Days 36    
Moisture  
Dew Point 22 °F    
Average Humidity 72    
Maximum Humidity 93    
Minimum Humidity 59    
Precipitation  
Precipitation 0.00 in - - ()
Sea Level Pressure  
Sea Level Pressure 29.48 in    
Wind  
Wind Speed 12 mph (NNW)    
Max Wind Speed 18 mph    
Max Gust Speed 32 mph    
Visibility 10 miles    
Events Rain    
Averages and records for this station are not official NWS values.
T = Trace of Precipitation, MM = Missing Value Source: NWS Daily Summary

Daily Weather History Graph

Daily Weather History Graph

Search for Another Location

Airport or City:

Trip Planner

Search our weather history database for the weather conditions in past years. The results will help you decide how hot, cold, wet, or windy it might be!

Date:

Astronomy

Sep. 22, 2013 Rise Set
Actual Time 8:07 AM AKDT 8:20 PM AKDT
Civil Twilight 7:24 AM AKDT 9:03 PM AKDT
Nautical Twilight 6:32 AM AKDT 9:55 PM AKDT
Astronomical Twilight 5:34 AM AKDT 10:52 PM AKDT
Moon 9:05 PM AKDT (9/22) 12:48 PM AKDT (9/22)
Length of Visible Light 13h 39m
Length of Day
12h 13m
Waning Gibbous, 87% of the Moon is Illuminated
Sep 22
Waning Gibbous
Sep 26
Last Quarter
Oct 4
New
Oct 11
First Quarter
Oct 18
Full

Hourly Weather History & Observations

Time (AKDT) Temp. Windchill Dew Point Humidity Pressure Visibility Wind Dir Wind Speed Gust Speed Precip Events Conditions
12:55 AM 26.2 °F 13.8 °F 18.0 °F 71% 29.31 in 10.0 mi NNW 16.1 mph 25.3 mph N/A   Clear
1:55 AM 26.4 °F 18.0 °F 17.1 °F 68% 29.32 in 10.0 mi NNW 8.1 mph 20.7 mph N/A   Scattered Clouds
2:55 AM 25.5 °F 13.3 °F 16.5 °F 69% 29.33 in 10.0 mi NNW 15.0 mph 26.5 mph N/A   Clear
3:55 AM 26.4 °F 15.0 °F 15.4 °F 63% 29.35 in 10.0 mi North 13.8 mph 21.9 mph N/A   Clear
4:55 AM 26.6 °F 15.2 °F 15.3 °F 62% 29.37 in 10.0 mi NNW 13.8 mph 28.8 mph N/A   Clear
5:55 AM 26.2 °F 14.2 °F 14.9 °F 62% 29.39 in 10.0 mi North 15.0 mph 32.2 mph N/A   Clear
6:55 AM 26.4 °F 13.2 °F 14.9 °F 62% 29.39 in 10.0 mi NNW 18.4 mph 29.9 mph N/A   Clear
7:55 AM 25.5 °F 12.9 °F 17.8 °F 72% 29.42 in 10.0 mi NNW 16.1 mph 24.2 mph N/A   Scattered Clouds
8:55 AM 25.0 °F 13.6 °F 19.4 °F 79% 29.43 in 10.0 mi NNW 12.7 mph 24.2 mph N/A   Partly Cloudy
9:55 AM 25.5 °F 14.9 °F 20.3 °F 81% 29.45 in 10.0 mi NNW 11.5 mph 18.4 mph N/A   Clear
10:55 AM 27.1 °F 18.9 °F 21.4 °F 79% 29.46 in 10.0 mi NNW 8.1 mph 17.3 mph N/A   Clear
11:55 AM 29.5 °F 19.9 °F 22.1 °F 74% 29.47 in 10.0 mi NNW 11.5 mph 20.7 mph N/A   Partly Cloudy
12:55 PM 32.2 °F 23.2 °F 22.1 °F 66% 29.48 in 10.0 mi NNW 11.5 mph 24.2 mph N/A   Partly Cloudy
1:55 PM 33.4 °F 24.3 °F 20.7 °F 59% 29.49 in 10.0 mi NNW 12.7 mph 25.3 mph N/A   Scattered Clouds
1:59 PM 33.8 °F 26.4 °F 21.2 °F 60% 29.49 in 10.0 mi NNW 9.2 mph 20.7 mph N/A   Mostly Cloudy
2:55 PM 33.6 °F 25.6 °F 22.6 °F 64% 29.50 in 10.0 mi NNW 10.4 mph 23.0 mph N/A   Mostly Cloudy
3:55 PM 33.8 °F 26.4 °F 21.7 °F 61% 29.52 in 10.0 mi NNW 9.2 mph 25.3 mph N/A   Mostly Cloudy
4:55 PM 34.0 °F 25.0 °F 22.8 °F 64% 29.52 in 10.0 mi NNW 12.7 mph 20.7 mph N/A   Mostly Cloudy
5:44 PM 33.8 °F 27.0 °F 23.0 °F 65% 29.53 in 10.0 mi North 8.1 mph 19.6 mph N/A   Mostly Cloudy
5:55 PM 34.5 °F 27.9 °F 23.5 °F 64% 29.53 in 10.0 mi NNW 8.1 mph 19.6 mph N/A   Mostly Cloudy
6:55 PM 34.5 °F 27.9 °F 22.8 °F 62% 29.54 in 10.0 mi North 8.1 mph 17.3 mph N/A   Mostly Cloudy
7:55 PM 34.0 °F 25.5 °F 22.6 °F 63% 29.55 in 10.0 mi NNW 11.5 mph 19.6 mph N/A   Mostly Cloudy
8:55 PM 33.6 °F 25.6 °F 25.5 °F 72% 29.57 in 10.0 mi NW 10.4 mph 17.3 mph N/A Rain Light Rain
9:29 PM 32.0 °F 26.4 °F 28.4 °F 87% 29.57 in 10.0 mi Variable 5.8 mph - N/A   Mostly Cloudy
9:55 PM 32.0 °F 24.2 °F 28.4 °F 87% 29.58 in 10.0 mi NW 9.2 mph - N/A   Mostly Cloudy
10:44 PM 32.0 °F 25.6 °F 30.2 °F 93% 29.59 in 10.0 mi NNW 6.9 mph - N/A   Mostly Cloudy
10:55 PM 31.6 °F 26.0 °F 29.5 °F 92% 29.59 in 10.0 mi Variable 5.8 mph - N/A Rain Light Freezing Rain
11:29 PM 32.0 °F 25.6 °F 28.4 °F 87% 29.60 in 10.0 mi NW 6.9 mph - N/A   Mostly Cloudy
11:55 PM 31.5 °F 23.5 °F 29.1 °F 91% 29.60 in 10.0 mi NW 9.2 mph 19.6 mph N/A   Mostly Cloudy